{"data":{"norad_id":57342,"epoch":"2026-05-24T18:55:19.734240Z","epoch_age_seconds":89736,"freshness":"FRESH","line1":"1 57342U 23099Q   26144.78842285  .00001637  00000+0  69008-4 0  9998","line2":"2 57342  43.0015 179.3180 0001458 279.6795  80.3892 15.27569150157754","mean_motion":15.2756915,"eccentricity":0.0001458,"inclination_deg":43.0015,"raan_deg":179.318,"arg_perigee_deg":279.6795,"mean_anomaly_deg":80.3892,"bstar":6.9008e-5,"rev_number":15775,"period_min":94.267418270394,"perigee_km":482.08121936552,"apogee_km":484.08195070492,"semimajor_km":6861.2185850352,"source":"CELESTRAK","updated_at":"2026-05-25T13:38:18.288267Z"}}